This demonstration page uses our WeatherBlox Daily Observations layout. Learn more.

Hourly Observations for January 22, 2015

Temp ( °F °C ) Dew Point ( °F °C ) Humidity (%) Winds ( mph kmh ) Pressure ( in mb ) Visibility ( mi km ) Precip ( " mm )
12:15 am 00:15 Mostly Cloudy 29 -1.5 21 -6.1 71 71 N 7 11 30.48 1032 10 16.0934 0 0
12:35 am 00:35 Mostly Cloudy 27 -2.8 20 -6.7 75 75 NNW 5 7 30.48 1032 10 16.0934 0 0
12:55 am 00:55 Partly Cloudy 25 -3.8 20 -6.7 81 81 NW 3 6 30.5 1033 10 16.0934 0 0
1:15 am 01:15 Mostly Cloudy 23 -4.9 19 -7.2 84 84 NW 3 6 30.5 1033 10 16.0934 0 0
1:35 am 01:35 Cloudy 25 -4.1 20 -6.6 83 83 Calm 30.5 1033 10 16.0934 0 0
1:55 am 01:55 Cloudy 25 -4.1 20 -6.5 84 84 NW 5 7 30.5 1033 10 16.0934 0 0
2:15 am 02:15 Partly Cloudy 24 -4.7 20 -6.9 85 85 NNW 6 9 30.5 1033 10 16.0934 0 0
2:35 am 02:35 Clear 25 -4 20 -6.6 82 82 NNW 7 11 30.5 1033 10 16.0934 0 0
2:55 am 02:55 Clear 24 -4.5 19 -7 83 83 NNW 7 11 30.53 1034 10 16.0934 0 0
3:15 am 03:15 Clear 24 -4.5 19 -7.3 81 81 NNW 6 9 30.53 1034 10 16.0934 0 0
3:35 am 03:35 Clear 19 -7 16 -8.9 86 86 NW 6 9 30.56 1035 10 16.0934 0 0
3:55 am 03:55 Clear 19 -7.5 16 -9.1 88 88 WNW 5 7 30.56 1035 10 16.0934 0 0
4:15 am 04:15 Clear 20 -6.9 17 -8.6 88 88 NW 7 11 30.56 1035 10 16.0934 0 0
4:35 am 04:35 Clear 19 -7.3 16 -9.1 87 87 W 3 6 30.56 1035 10 16.0934 0 0
4:55 am 04:55 Clear 19 -7 16 -8.9 86 86 W 3 6 30.56 1035 10 16.0934 0 0
5:15 am 05:15 Clear 20 -6.9 16 -8.7 87 87 W 3 6 30.56 1035 10 16.0934 0 0
5:35 am 05:35 Clear 19 -7 16 -8.7 88 88 WSW 3 6 30.59 1036 10 16.0934 0 0
5:55 am 05:55 Clear 20 -6.9 16 -8.7 87 87 WSW 5 7 30.59 1036 10 16.0934 0 0
6:15 am 06:15 Partly Cloudy 20 -6.6 17 -8.5 87 87 WSW 3 6 30.59 1036 10 16.0934 0 0
6:35 am 06:35 Mostly Cloudy 20 -6.4 17 -8.4 86 86 Calm 30.59 1036 10 16.0934 0 0
6:55 am 06:55 Mostly Cloudy 21 -6.1 17 -8.2 85 85 W 3 6 30.59 1036 10 16.0934 0 0
7:15 am 07:15 Partly Cloudy 22 -5.8 18 -7.9 85 85 W 5 7 30.59 1036 10 16.0934 0 0
7:35 am 07:35 Clear 21 -6.2 17 -8.5 84 84 W 3 6 30.59 1036 10 16.0934 0 0
7:55 am 07:55 Sunny 20 -6.7 17 -8.5 87 87 W 3 6 30.59 1036 10 16.0934 0 0
8:15 am 08:15 Sunny 19 -7.1 16 -8.9 87 87 W 3 6 30.59 1036 10 16.0934 0 0
8:35 am 08:35 Sunny 19 -7 16 -8.9 86 86 W 5 7 30.62 1037 10 16.0934 0 0
8:55 am 08:55 Sunny 21 -6 18 -7.8 87 87 W 6 9 30.62 1037 10 16.0934 0 0
9:15 am 09:15 Sunny 22 -5.5 18 -7.6 85 85 W 3 6 30.59 1036 10 16.0934 0 0
9:35 am 09:35 Sunny 24 -4.3 20 -6.8 83 83 W 5 7 30.59 1036 10 16.0934 0 0
9:55 am 09:55 Sunny 27 -2.7 22 -5.4 82 82 W 5 7 30.59 1036 10 16.0934 0 0
10:15 am 10:15 Sunny 30 -1.3 24 -4.7 78 78 W 5 7 30.56 1035 10 16.0934 0 0
10:35 am 10:35 Sunny 31 -0.4 23 -5 71 71 W 5 7 30.56 1035 10 16.0934 0 0
10:55 am 10:55 Sunny 33 0.5 23 -5.2 66 66 W 8 13 30.53 1034 10 16.0934 0 0
11:15 am 11:15 Sunny 34 1.3 23 -5.1 63 63 WSW 9 15 30.5 1033 10 16.0934 0 0
11:35 am 11:35 Sunny 35 1.8 22 -5.8 57 57 SW 9 15 30.5 1033 10 16.0934 0 0
11:55 am 11:55 Sunny 36 2.1 22 -5.3 58 58 SW 9 15 30.5 1033 10 16.0934 0 0
12:15 pm 12:15 Sunny 36 2.2 22 -5.6 57 57 SW 8 13 30.48 1032 10 16.0934 0 0
12:35 pm 12:35 Sunny 37 2.6 22 -5.7 55 55 SW 8 13 30.45 1031 10 16.0934 0 0
12:55 pm 12:55 Sunny 37 2.8 22 -5.6 54 54 WSW 8 13 30.42 1030 10 16.0934 0 0
2:35 pm 14:35 Sunny 40 4.5 19 -7.1 43 43 SW 7 11 30.39 1029 10 16.0934 0 0
2:55 pm 14:55 Sunny 40 4.7 19 -7.1 42 42 W 9 15 30.36 1028 10 16.0934 0 0
3:15 pm 15:15 Sunny 40 4.7 19 -7.1 42 42 SW 9 15 30.36 1028 10 16.0934 0 0
3:35 pm 15:35 Sunny 41 4.9 19 -7.3 41 41 W 10 17 30.36 1028 10 16.0934 0 0
3:55 pm 15:55 Sunny 40 4.6 19 -7.5 41 41 W 7 11 30.36 1028 10 16.0934 0 0
4:15 pm 16:15 Sunny 41 4.8 19 -7.3 42 42 WSW 7 11 30.36 1028 10 16.0934 0 0
4:35 pm 16:35 Sunny 40 4.6 18 -7.9 40 40 SW 7 11 30.36 1028 10 16.0934 0 0
4:55 pm 16:55 Sunny 40 4.2 18 -7.8 42 42 WSW 6 9 30.36 1028 10 16.0934 0 0
5:15 pm 17:15 Sunny 38 3.4 19 -7.5 45 45 SSW 5 7 30.33 1027 10 16.0934 0 0
5:35 pm 17:35 Sunny 37 2.5 19 -7.5 48 48 SSW 6 9 30.33 1027 10 16.0934 0 0
5:55 pm 17:55 Clear 35 1.4 19 -7.5 52 52 SSW 6 9 30.36 1028 10 16.0934 0 0
6:15 pm 18:15 Clear 33 0.4 18 -7.6 55 55 SSW 6 9 30.36 1028 10 16.0934 0 0
6:35 pm 18:35 Clear 32 -0.1 18 -7.8 57 57 S 5 7 30.36 1028 10 16.0934 0 0
6:55 pm 18:55 Clear 29 -1.4 18 -8 61 61 S 7 11 30.36 1028 10 16.0934 0 0
7:15 pm 19:15 Clear 29 -1.8 18 -8 63 63 S 5 7 30.39 1029 10 16.0934 0 0
7:35 pm 19:35 Clear 28 -2.1 18 -7.9 65 65 S 6 9 30.39 1029 10 16.0934 0 0
7:55 pm 19:55 Clear 28 -2.4 18 -7.7 67 67 S 8 13 30.39 1029 10 16.0934 0 0
8:15 pm 20:15 Clear 28 -2.5 18 -7.6 68 68 S 8 13 30.39 1029 10 16.0934 0 0
8:35 pm 20:35 Clear 28 -2.5 18 -7.7 68 68 S 8 13 30.39 1029 10 16.0934 0 0
8:55 pm 20:55 Clear 28 -2.5 18 -7.6 68 68 S 8 13 30.39 1029 10 16.0934 0 0
9:15 pm 21:15 Clear 27 -3 18 -7.6 71 71 S 7 11 30.39 1029 10 16.0934 0 0
9:35 pm 21:35 Clear 27 -3 19 -7.5 71 71 S 8 13 30.39 1029 10 16.0934 0 0
9:55 pm 21:55 Clear 27 -2.6 19 -7.2 71 71 S 9 15 30.36 1028 10 16.0934 0 0
10:15 pm 22:15 Clear 27 -2.6 19 -7 72 72 S 8 13 30.36 1028 10 16.0934 0 0
10:35 pm 22:35 Clear 28 -2.5 19 -7.3 70 70 S 9 15 30.36 1028 10 16.0934 0 0
10:55 pm 22:55 Clear 25 -3.9 18 -7.7 75 75 S 8 13 30.36 1028 10 16.0934 0 0
11:15 pm 23:15 Clear 25 -4 18 -7.6 76 76 S 8 13 30.36 1028 10 16.0934 0 0
11:35 pm 23:35 Clear 25 -4.1 18 -7.6 77 77 S 6 9 30.36 1028 10 16.0934 0 0
11:55 pm 23:55 Clear 25 -4 18 -8 74 74 SSW 7 11 30.36 1028 10 16.0934 0 0

Powered by AerisWeather